Location: Circle Lane School (historical)
(41.2781°N, 96.3214°W)
Time: 09:00:12
(UTC+00:00)

Daily predictions for brighter satellites

Satellite Brightness Start Highest point End
(mag) Time Altitude Azimuth Time Altitude Azimuth Time Altitude Azimuth
Meteor 1-10 Rocket 4.1 12:00:44 10° SSW 12:06:17 77° W 12:11:57 10° N
Cosmos 1607 4.0 12:05:21 10° SSW 12:11:28 85° ESE 12:17:40 10° NNE
Okean 1 Rocket 4.4 12:07:33 10° N 12:11:47 43° ENE 12:15:56 10° SSE
Cosmos 2151 Rocket 3.6 12:07:53 10° NNW 12:12:22 66° W 12:16:47 10° S
S3M 4.4 12:09:28 10° SSW 12:15:25 42° WNW 12:21:21 10° N
PAYLOAD A 4.1 12:13:22 10° NNE 12:18:06 73° ESE 12:22:57 10° S
Cosmos 1633 2.5 12:17:11 10° N 12:20:50 88° E 12:24:25 10° S
Cosmos 1850 Rocket 4.3 12:17:13 10° NNW 12:22:18 45° WSW 12:27:18 10° S
BREEZE M DEB (TANK) 4.3 12:14:10 11° W 12:25:18 41° NNW 12:29:16 10° ENE
Cosmos 1536 3.9 12:22:55 10° N 12:26:50 50° E 12:30:43 10° SSE
COSMO-SKYMED 1 3.4 12:23:23 10° SSW 12:27:10 29° W 12:30:57 10° NW
SJ-12 4.4 12:26:46 10° NNE 12:30:52 68° ESE 12:34:57 10° S
ATLAS 5 CENTAUR R/B 3.9 12:28:31 10° WNW 12:30:55 13° NNW 12:33:24 10° N
Ariane Rocket 3.0 12:27:18 10° N 12:32:20 62° WNW 12:37:20 10° SSW
Lacrosse 5 rocket 1.8 12:30:00 10° NW 12:33:30 49° NE 12:37:01 10° ESE
Meteor 1-28 Rocket 4.1 12:31:23 10° SSW 12:34:36 28° W 12:37:52 10° NW
Cosmos 1943 Rocket 4.0 12:34:23 10° WNW 12:36:25 12° NW 12:38:28 10° NNW
IDEFIX/ARIANE 42P 2.8 12:31:14 10° NNE 12:36:29 78° ESE 12:41:40 10° S
Meteor 1-27 Rocket 3.8 12:36:51 10° SSW 12:42:34 65° WNW 12:48:26 10° N
